User: anonymous   Login
Location: Peebles
(55.6412°N, 3.1714°W)
Time: 22:31:52
(UTC+00:00)
Language:

PCSat - Orbit

View from above orbital plane
View from above orbital plane
View from above satellite
View from above satellite

Ground track
Ground track

The orbit data is extracted from the following two-line orbital elements,

1 26931U 01043C   22336.43370353  .00000100  00000-0  69663-4 0  9998
2 26931  67.0515 344.7942 0005234 269.9561  90.0940 14.30769708105599
Epoch (UTC): 02 December 2022 10:24:31
Eccentricity: 0.0005234
inclination: 67.0515°
perigee height: 785 km
apogee height: 793 km
right ascension of ascending node: 344.7942°
argument of perigee: 269.9561°
revolutions per day: 14.30769708
mean anomaly at epoch: 90.0940°
orbit number at epoch: 10559

The dashed part of the orbit path shows where the satellite is in the earth's shadow,  

DLR